Location: ??????
(41.3164°N, 22.6615°E)
Time: 19:05:57
(UTC+00:00)

ZACube-1 - Pass Details

Date: 07 July 2022
Orbit: 582 x 661 km, 97.6° (Epoch: 07 August)

Event Time Altitude Azimuth Distance (km) Brightness Sun altitude
Rises 02:22:21 0° 12° (NNE) 2,976 ? -7.1°
Reaches altitude 10° 02:24:34 10° 13° (NNE) 2,069 ? -6.8°
Maximum altitude 02:29:06 86° 100° (E) 666 ? -6.1°
Drops below altitude 10° 02:33:39 10° 192° (SSW) 2,071 ? -5.4°
Sets 02:35:52 0° 193° (SSW) 2,979 ? -5.1°
